Naples, Italy

9:35 AM CEST on June 28, 2017 (GMT +0200)
Capodichino Mil

Weather History for LIRN - June, 2013

Change the Weather History Date:

Saturday, June 29, 2013

  Actual Average Record
Temperature  
Mean Temperature 70 °F -  
Max Temperature 78 °F 85 °F 93 °F (2006)
Min Temperature 62 °F 64 °F 62 °F (2007)
Cooling Degree Days 5    
Growing Degree Days 20 (Base 50)    
Moisture  
Dew Point 56 °F    
Average Humidity 64    
Maximum Humidity 82    
Minimum Humidity 36    
Precipitation  
Precipitation 0.00 in 0.03 in - ()
Sea Level Pressure  
Sea Level Pressure 29.98 in    
Wind  
Wind Speed 5 mph ()    
Max Wind Speed 16 mph    
Max Gust Speed 24 mph    
Visibility 6.2 miles    
Events Rain , Thunderstorm    
Averages and records for this station are not official NWS values.
T = Trace of Precipitation, MM = Missing Value Source: Averaged Metar Reports

Daily Weather History Graph

Daily Weather History Graph

Search for Another Location

Airport or City:

Trip Planner

Search our weather history database for the weather conditions in past years. The results will help you decide how hot, cold, wet, or windy it might be!

Date:

Astronomy

Jun. 29, 2013 Rise Set
Actual Time 5:33 AM CEST 8:38 PM CEST
Civil Twilight 5:00 AM CEST 9:11 PM CEST
Nautical Twilight 4:17 AM CEST 9:54 PM CEST
Astronomical Twilight 3:27 AM CEST 10:44 PM CEST
Moon No Moon Rise 12:30 PM CEST (6/29)
Length of Visible Light 16h 11m
Length of Day
15h 04m
Waning Gibbous, 58% of the Moon is Illuminated
Jun 29
Waning Gibbous
Jun 30
Last Quarter
Jul 8
New
Jul 16
First Quarter
Jul 22
Full

Hourly Weather History & Observations

Time (CEST) Temp. Dew Point Humidity Pressure Visibility Wind Dir Wind Speed Gust Speed Precip Events Conditions
12:20 AM 68.0 °F 60.8 °F 78% 30.01 in 6.2 mi NE 3.5 mph - N/A   Scattered Clouds
12:50 AM 68.0 °F 57.2 °F 68% 29.98 in 6.2 mi Variable 2.3 mph - N/A   Scattered Clouds
1:20 AM 68.0 °F 57.2 °F 68% 29.98 in 6.2 mi NE 3.5 mph - N/A   Scattered Clouds
1:50 AM 68.0 °F 57.2 °F 68% 29.98 in 6.2 mi NE 4.6 mph - N/A   Scattered Clouds
2:20 AM 66.2 °F 57.2 °F 73% 29.98 in 6.2 mi NNE 4.6 mph - N/A   Scattered Clouds
2:50 AM 68.0 °F 57.2 °F 68% 29.98 in 6.2 mi NNE 3.5 mph - N/A   Scattered Clouds
3:20 AM 68.0 °F 57.2 °F 68% 29.95 in 6.2 mi Variable 2.3 mph - N/A   Scattered Clouds
3:50 AM 66.2 °F 57.2 °F 73% 29.95 in 6.2 mi NNE 3.5 mph - N/A   Scattered Clouds
4:20 AM 66.2 °F 57.2 °F 73% 29.95 in 6.2 mi NNE 4.6 mph - N/A   Scattered Clouds
4:50 AM 66.2 °F 57.2 °F 73% 29.95 in 6.2 mi NNE 9.2 mph - N/A   Scattered Clouds
5:20 AM 66.2 °F 57.2 °F 73% 29.95 in 6.2 mi North 11.5 mph - N/A Rain , Thunderstorm Thunderstorms and Rain
5:50 AM 64.4 °F 57.2 °F 77% 29.95 in 6.2 mi NNE 11.5 mph - N/A Rain , Thunderstorm Thunderstorms and Rain
6:20 AM 64.4 °F 57.2 °F 77% 29.98 in 6.2 mi NNW 5.8 mph - N/A Rain , Thunderstorm Light Thunderstorms and Rain
6:50 AM 62.6 °F 57.2 °F 82% 29.95 in 5.0 mi Variable 2.3 mph - N/A Rain Rain
7:20 AM 64.4 °F 57.2 °F 77% 29.98 in 6.2 mi NW 2.3 mph - N/A   Scattered Clouds
7:50 AM 66.2 °F 57.2 °F 73% 29.98 in 6.2 mi Variable 1.2 mph - N/A   Scattered Clouds
8:20 AM 68.0 °F 57.2 °F 68% 29.98 in 6.2 mi NNE 6.9 mph - N/A   Partly Cloudy
8:50 AM 69.8 °F 57.2 °F 64% 29.98 in - NNE 5.8 mph - N/A   Clear
9:20 AM 71.6 °F 59.0 °F 64% 29.98 in - NE 6.9 mph - N/A   Clear
9:50 AM 71.6 °F 57.2 °F 60% 29.98 in - NE 4.6 mph - N/A   Clear
10:20 AM 73.4 °F 53.6 °F 50% 29.98 in 6.2 mi ENE 3.5 mph - N/A   Partly Cloudy
10:50 AM 73.4 °F 53.6 °F 50% 29.98 in 6.2 mi Variable 5.8 mph - N/A   Partly Cloudy
11:20 AM 73.4 °F 51.8 °F 47% 29.98 in 6.2 mi North 5.8 mph - N/A   Partly Cloudy
11:50 AM 75.2 °F 50.0 °F 41% 29.98 in 6.2 mi Variable 6.9 mph - N/A   Partly Cloudy
12:20 PM 77.0 °F 50.0 °F 39% 29.95 in 6.2 mi North 5.8 mph - N/A   Partly Cloudy
12:50 PM 77.0 °F 48.2 °F 36% 29.95 in 6.2 mi Variable 5.8 mph - N/A   Partly Cloudy
1:20 PM - - N/A% - 6.2 mi North 6.9 mph - N/A   Unknown
1:50 PM 78.8 °F 50.0 °F 36% 29.95 in 6.2 mi NW 5.8 mph - N/A   Scattered Clouds
2:20 PM 75.2 °F 51.8 °F 44% 29.95 in 6.2 mi WNW 15.0 mph - N/A   Scattered Clouds
2:50 PM 73.4 °F 50.0 °F 44% 29.95 in 6.2 mi NNE 11.5 mph - N/A   Scattered Clouds
3:20 PM 68.0 °F 51.8 °F 56% 29.98 in 6.2 mi NE 12.7 mph 24.2 mph N/A   Mostly Cloudy
3:50 PM 68.0 °F 55.4 °F 64% 29.98 in 6.2 mi NE 9.2 mph - N/A   Mostly Cloudy
4:20 PM 64.4 °F 55.4 °F 73% 30.01 in 6.2 mi North 16.1 mph - N/A Rain Light Rain
4:50 PM 64.4 °F 57.2 °F 77% 29.98 in 6.2 mi South 4.6 mph - N/A Rain Light Rain
5:50 PM 68.0 °F 59.0 °F 73% 29.98 in 6.2 mi ENE 5.8 mph - N/A   Scattered Clouds
6:20 PM 69.8 °F 57.2 °F 64% 29.98 in 6.2 mi ENE 5.8 mph - N/A   Scattered Clouds
6:50 PM 69.8 °F 55.4 °F 60% 29.98 in 6.2 mi Variable 3.5 mph - N/A   Scattered Clouds
7:20 PM 71.6 °F 53.6 °F 53% 29.98 in 6.2 mi Variable 2.3 mph - N/A   Scattered Clouds
7:50 PM 69.8 °F 55.4 °F 60% 29.98 in 6.2 mi Variable 2.3 mph - N/A   Mostly Cloudy
8:20 PM 68.0 °F 55.4 °F 64% 29.98 in 6.2 mi East 3.5 mph - N/A   Mostly Cloudy
8:50 PM 68.0 °F 57.2 °F 68% 29.98 in 6.2 mi East 3.5 mph - N/A   Mostly Cloudy
9:20 PM 68.0 °F 57.2 °F 68% 30.01 in 6.2 mi South 1.2 mph - N/A   Mostly Cloudy
9:50 PM 68.0 °F 57.2 °F 68% 30.01 in 6.2 mi South 1.2 mph - N/A   Mostly Cloudy
10:20 PM 66.2 °F 57.2 °F 73% 30.01 in 6.2 mi SSE 2.3 mph - N/A   Mostly Cloudy
10:50 PM 66.2 °F 57.2 °F 73% 30.01 in 6.2 mi Calm Calm - N/A   Mostly Cloudy
11:20 PM 66.2 °F 55.4 °F 68% 30.01 in - Variable 1.2 mph - N/A   Clear
11:50 PM 64.4 °F 55.4 °F 73% 30.01 in - NNE 3.5 mph - N/A   Clear